Location: �clusier
(49.9361°N, 2.7869°E)
Time: 06:30:42
(UTC+00:00)

ATLAS CENTAUR R/B - Pass Details

Date: 24 October 2021
Orbit: 452 x 688 km, 64.7° (Epoch: 06 December)

Event Time Altitude Azimuth Distance (km) Brightness Sun altitude
Exits shadow 05:30:02 - 310° (NW) 2,054 3.7 -9.5°
Reaches altitude 10° 05:30:40 10° 317° (NW) 1,927 3.6 -9.4°
Maximum altitude 05:32:56 14° 349° (NNW) 1,729 3.7 -9.1°
Drops below altitude 10° 05:35:16 10° 20° (NNE) 2,006 4.3 -8.7°
Sets 05:38:45 0° 46° (NE) 2,968 5.6 -8.1°
